FLA576 KPIE-KEYW

Flight info

Callsign FLA576
Flight time 0h 37m
Altitude 19000
Route PIE V35 RSW V539 CORGI
Aircraft B732/M-VW/C

Departure

Time 2026-05-06 03:40
Airport St. Petersburg Clearwater International Airport (KPIE)

Arrival

Time 2026-05-06 04:18
Airport Key West International Airport (KEYW)
Time Latitude Longitude Altitude Speed Heading
2026-05-06 03:02 27.90696 -82.69020 14 ft 0 kts 243°
2026-05-06 03:33 27.90696 -82.69021 14 ft 0 kts 243°
2026-05-06 03:33 27.90696 -82.69020 14 ft 0 kts 243°
2026-05-06 03:34 27.90698 -82.69005 14 ft 2 kts 279°
2026-05-06 03:34 27.90692 -82.68990 14 ft 2 kts 316°
2026-05-06 03:34 27.90679 -82.68983 14 ft 2 kts 352°
2026-05-06 03:34 27.90665 -82.68982 14 ft 1 kts 358°
2026-05-06 03:35 27.90662 -82.68982 14 ft 0 kts 358°
2026-05-06 03:36 27.90675 -82.68951 14 ft 9 kts 135°
2026-05-06 03:37 27.90568 -82.68926 14 ft 17 kts 170°
2026-05-06 03:37 27.90441 -82.68902 14 ft 21 kts 173°
2026-05-06 03:37 27.90276 -82.68873 14 ft 25 kts 170°
2026-05-06 03:37 27.90099 -82.68865 14 ft 25 kts 180°
2026-05-06 03:38 27.89922 -82.68864 14 ft 25 kts 174°
2026-05-06 03:38 27.89749 -82.68833 14 ft 24 kts 168°
2026-05-06 03:38 27.89692 -82.68752 14 ft 6 kts 84°
2026-05-06 03:38 27.89693 -82.68738 14 ft 0 kts 82°
2026-05-06 03:39 27.89711 -82.68647 14 ft 22 kts 56°
2026-05-06 03:39 27.89760 -82.68626 14 ft 0 kts 351°
2026-05-06 03:39 27.89761 -82.68626 14 ft 1 kts 351°
2026-05-06 03:39 27.90040 -82.68675 14 ft 79 kts 351°
2026-05-06 03:40 27.90816 -82.68813 37 ft 144 kts 352°
2026-05-06 03:40 27.91909 -82.69022 418 ft 171 kts 353°
2026-05-06 03:40 27.93121 -82.69252 1110 ft 186 kts 352°
2026-05-06 03:40 27.94420 -82.69531 1806 ft 204 kts 351°
2026-05-06 03:41 27.95876 -82.69881 2134 ft 226 kts 349°
2026-05-06 03:41 27.97325 -82.70553 2811 ft 228 kts 323°
2026-05-06 03:41 27.98335 -82.71952 3371 ft 244 kts 291°
2026-05-06 03:41 27.98606 -82.73869 4239 ft 256 kts 269°
2026-05-06 03:42 27.98553 -82.75906 5253 ft 263 kts 266°
2026-05-06 03:42 27.98421 -82.77958 6298 ft 268 kts 265°
2026-05-06 03:42 27.98258 -82.80057 7347 ft 271 kts 264°
2026-05-06 03:42 27.98088 -82.82191 8248 ft 279 kts 264°
2026-05-06 03:43 27.97919 -82.84380 9191 ft 284 kts 264°
2026-05-06 03:43 27.97741 -82.86571 10210 ft 285 kts 261°
2026-05-06 03:43 27.96975 -82.88599 11206 ft 287 kts 234°
2026-05-06 03:43 27.95402 -82.90017 12000 ft 301 kts 209°
2026-05-06 03:44 27.93374 -82.90717 12581 ft 320 kts 189°
2026-05-06 03:44 27.91073 -82.90488 12924 ft 346 kts 163°
2026-05-06 03:44 27.88892 -82.89307 13475 ft 360 kts 145°
2026-05-06 03:44 27.87019 -82.87369 14106 ft 368 kts 131°
2026-05-06 03:45 27.85337 -82.85145 14752 ft 376 kts 128°
2026-05-06 03:45 27.83685 -82.82836 15424 ft 383 kts 127°
2026-05-06 03:45 27.82036 -82.80505 16109 ft 388 kts 127°
2026-05-06 03:45 27.80351 -82.78117 16799 ft 392 kts 127°
2026-05-06 03:46 27.78637 -82.75692 17457 ft 396 kts 127°
2026-05-06 03:46 27.76920 -82.73265 18101 ft 400 kts 127°
2026-05-06 03:46 27.75172 -82.70797 18703 ft 405 kts 127°
2026-05-06 03:46 27.73394 -82.68282 18941 ft 420 kts 127°
2026-05-06 03:47 27.71532 -82.65641 18998 ft 439 kts 127°
2026-05-06 03:47 27.69592 -82.62884 19018 ft 457 kts 127°
2026-05-06 03:47 27.67593 -82.60035 19018 ft 473 kts 127°
2026-05-06 03:47 27.65549 -82.57121 19008 ft 475 kts 127°
2026-05-06 03:48 27.63514 -82.54210 19000 ft 476 kts 127°
2026-05-06 03:48 27.61308 -82.51415 18993 ft 478 kts 136°
2026-05-06 03:48 27.58700 -82.49155 18993 ft 478 kts 147°
2026-05-06 03:48 27.55847 -82.47247 18993 ft 478 kts 152°
2026-05-06 03:49 27.52923 -82.45499 18992 ft 479 kts 153°
2026-05-06 03:49 27.49948 -82.43775 18991 ft 479 kts 153°
2026-05-06 03:49 27.46972 -82.42066 18991 ft 480 kts 154°
2026-05-06 03:49 27.44035 -82.40383 18991 ft 480 kts 154°
2026-05-06 03:50 27.41053 -82.38676 18990 ft 480 kts 153°
2026-05-06 03:50 27.38084 -82.36971 18989 ft 481 kts 153°
2026-05-06 03:50 27.35110 -82.35255 18993 ft 481 kts 153°
2026-05-06 03:50 27.32154 -82.33526 18995 ft 481 kts 153°
2026-05-06 03:51 27.29186 -82.31773 18995 ft 482 kts 153°
2026-05-06 03:51 27.26232 -82.30020 18993 ft 482 kts 153°
2026-05-06 03:51 27.23268 -82.28254 18990 ft 482 kts 153°
2026-05-06 03:51 27.20342 -82.26506 18989 ft 482 kts 153°
2026-05-06 03:52 27.17359 -82.24719 18989 ft 482 kts 153°
2026-05-06 03:52 27.14420 -82.22956 18990 ft 482 kts 153°
2026-05-06 03:52 27.11455 -82.21177 18991 ft 482 kts 153°
2026-05-06 03:52 27.08494 -82.19401 18990 ft 483 kts 153°
2026-05-06 03:53 27.05537 -82.17630 18991 ft 483 kts 153°
2026-05-06 03:53 27.02602 -82.15874 18988 ft 483 kts 153°
2026-05-06 03:53 26.99634 -82.14096 18986 ft 483 kts 152°
2026-05-06 03:53 26.96685 -82.12290 18988 ft 483 kts 152°
2026-05-06 03:54 26.93738 -82.10491 18985 ft 484 kts 150°
2026-05-06 03:54 26.90941 -82.08428 18981 ft 482 kts 144°
2026-05-06 03:54 26.88325 -82.06096 18980 ft 479 kts 140°
2026-05-06 03:54 26.85776 -82.03710 18983 ft 477 kts 140°
2026-05-06 03:55 26.83232 -82.01363 18984 ft 475 kts 141°
2026-05-06 03:55 26.80666 -81.99090 18987 ft 473 kts 142°
2026-05-06 03:55 26.78043 -81.96880 18988 ft 471 kts 144°
2026-05-06 03:55 26.75404 -81.94772 18991 ft 469 kts 145°
2026-05-06 03:56 26.72712 -81.92714 18992 ft 467 kts 146°
2026-05-06 03:56 26.70011 -81.90702 18994 ft 466 kts 147°
2026-05-06 03:56 26.67340 -81.88718 18995 ft 464 kts 147°
2026-05-06 03:56 26.64670 -81.86708 18997 ft 463 kts 146°
2026-05-06 03:57 26.62020 -81.84673 18998 ft 462 kts 146°
2026-05-06 03:57 26.59390 -81.82624 19000 ft 461 kts 145°
2026-05-06 03:57 26.56747 -81.80611 18996 ft 460 kts 149°
2026-05-06 03:57 26.53835 -81.79227 18997 ft 456 kts 165°
2026-05-06 03:58 26.50754 -81.78394 19001 ft 455 kts 169°
2026-05-06 03:58 26.47669 -81.77690 19001 ft 454 kts 171°
2026-05-06 03:58 26.44612 -81.77016 19000 ft 454 kts 170°
2026-05-06 03:58 26.41569 -81.76120 19000 ft 454 kts 164°
2026-05-06 03:59 26.38564 -81.75022 19000 ft 454 kts 162°
2026-05-06 03:59 26.35584 -81.73869 18998 ft 454 kts 162°
2026-05-06 03:59 26.32647 -81.72562 18996 ft 455 kts 159°
2026-05-06 03:59 26.29750 -81.71259 18993 ft 454 kts 159°
2026-05-06 04:00 26.26778 -81.70064 18991 ft 453 kts 165°
2026-05-06 04:00 26.23705 -81.69228 18990 ft 452 kts 170°
2026-05-06 04:00 26.20630 -81.68582 18990 ft 451 kts 172°
2026-05-06 04:00 26.17529 -81.67973 18990 ft 451 kts 172°
2026-05-06 04:01 26.14473 -81.67378 18990 ft 451 kts 172°
2026-05-06 04:01 26.11398 -81.66773 18991 ft 451 kts 172°
2026-05-06 04:01 26.08316 -81.66148 18990 ft 451 kts 171°
2026-05-06 04:01 26.05233 -81.65501 18990 ft 451 kts 171°
2026-05-06 04:02 26.02168 -81.64831 18991 ft 451 kts 170°
2026-05-06 04:02 25.99093 -81.64133 18990 ft 451 kts 170°
2026-05-06 04:02 25.96053 -81.63416 18990 ft 451 kts 169°
2026-05-06 04:02 25.92997 -81.62671 18990 ft 451 kts 169°
2026-05-06 04:03 25.89932 -81.61901 18990 ft 452 kts 169°
2026-05-06 04:03 25.86846 -81.61111 18987 ft 451 kts 168°
2026-05-06 04:03 25.83819 -81.60320 18985 ft 451 kts 168°
2026-05-06 04:03 25.80770 -81.59510 18984 ft 451 kts 168°
2026-05-06 04:04 25.77729 -81.58693 18982 ft 451 kts 168°
2026-05-06 04:04 25.74705 -81.57873 18981 ft 451 kts 168°
2026-05-06 04:04 25.71664 -81.57043 18981 ft 451 kts 168°
2026-05-06 04:04 25.68624 -81.56210 18981 ft 451 kts 168°
2026-05-06 04:05 25.65574 -81.55377 18981 ft 451 kts 168°
2026-05-06 04:05 25.62502 -81.54542 18982 ft 451 kts 168°
2026-05-06 04:05 25.59491 -81.53727 18981 ft 450 kts 168°
2026-05-06 04:05 25.56451 -81.52905 18981 ft 450 kts 168°
2026-05-06 04:06 25.53394 -81.52080 18981 ft 450 kts 168°
2026-05-06 04:06 25.50357 -81.51262 18981 ft 450 kts 168°
2026-05-06 04:06 25.47316 -81.50444 18981 ft 450 kts 168°
2026-05-06 04:06 25.44291 -81.49744 18980 ft 449 kts 173°
2026-05-06 04:07 25.41170 -81.49408 18980 ft 447 kts 180°
2026-05-06 04:07 25.38133 -81.49706 18975 ft 439 kts 197°
2026-05-06 04:07 25.35271 -81.50874 18983 ft 435 kts 207°
2026-05-06 04:07 25.32512 -81.52232 18985 ft 435 kts 207°
2026-05-06 04:08 25.29768 -81.53560 18984 ft 435 kts 206°
2026-05-06 04:08 25.26972 -81.54834 18982 ft 436 kts 205°
2026-05-06 04:08 25.24169 -81.56135 18979 ft 435 kts 207°
2026-05-06 04:08 25.21437 -81.57578 18976 ft 431 kts 210°
2026-05-06 04:09 25.18844 -81.59094 18979 ft 422 kts 212°
2026-05-06 04:09 25.16288 -81.60661 18864 ft 411 kts 213°
2026-05-06 04:09 25.13803 -81.62185 18601 ft 406 kts 212°
2026-05-06 04:09 25.11354 -81.63621 18255 ft 403 kts 211°
2026-05-06 04:10 25.08820 -81.64983 17845 ft 403 kts 208°
2026-05-06 04:10 25.06271 -81.66188 17438 ft 403 kts 205°
2026-05-06 04:10 25.03643 -81.67245 17065 ft 402 kts 201°
2026-05-06 04:10 25.00972 -81.68137 16715 ft 400 kts 198°
2026-05-06 04:11 24.98278 -81.68877 16326 ft 398 kts 195°
2026-05-06 04:11 24.95595 -81.69495 15945 ft 396 kts 194°
2026-05-06 04:11 24.92904 -81.70045 15557 ft 394 kts 193°
2026-05-06 04:11 24.90199 -81.70578 15174 ft 390 kts 193°
2026-05-06 04:12 24.87577 -81.71114 14666 ft 386 kts 193°
2026-05-06 04:12 24.84943 -81.71716 14132 ft 382 kts 195°
2026-05-06 04:12 24.82380 -81.72388 13610 ft 378 kts 197°
2026-05-06 04:12 24.79880 -81.73128 13101 ft 374 kts 198°
2026-05-06 04:13 24.77401 -81.73926 12582 ft 369 kts 199°
2026-05-06 04:13 24.75012 -81.74730 11719 ft 358 kts 199°
2026-05-06 04:13 24.72703 -81.75516 10945 ft 342 kts 198°
2026-05-06 04:13 24.70500 -81.75784 10134 ft 334 kts 133°
2026-05-06 04:14 24.69931 -81.73504 9028 ft 292 kts 99°
2026-05-06 04:14 24.69393 -81.71458 7488 ft 290 kts 116°
2026-05-06 04:14 24.68616 -81.69659 6581 ft 235 kts 129°
2026-05-06 04:14 24.67709 -81.68422 5683 ft 223 kts 135°
2026-05-06 04:15 24.66545 -81.67280 4916 ft 232 kts 140°
2026-05-06 04:15 24.65323 -81.66075 3859 ft 242 kts 135°
2026-05-06 04:15 24.64243 -81.64819 3535 ft 224 kts 133°
2026-05-06 04:15 24.63170 -81.63607 2892 ft 211 kts 137°
2026-05-06 04:16 24.61931 -81.63108 2402 ft 189 kts 210°
2026-05-06 04:16 24.61239 -81.64082 2014 ft 146 kts 210°
2026-05-06 04:16 24.60340 -81.64486 1383 ft 143 kts 204°
2026-05-06 04:16 24.59491 -81.64957 836 ft 135 kts 208°
2026-05-06 04:17 24.58762 -81.65527 397 ft 125 kts 228°
2026-05-06 04:17 24.58310 -81.66301 108 ft 118 kts 249°
2026-05-06 04:17 24.58043 -81.67162 26 ft 118 kts 253°
2026-05-06 04:17 24.57833 -81.67924 12 ft 88 kts 253°
2026-05-06 04:18 24.57696 -81.68433 11 ft 53 kts 253°
2026-05-06 04:18 24.57614 -81.68720 11 ft 25 kts 250°
2026-05-06 04:18 24.57621 -81.68870 11 ft 19 kts 311°
2026-05-06 04:18 24.57707 -81.68980 12 ft 18 kts 311°
2026-05-06 04:19 24.57796 -81.69083 12 ft 17 kts 315°
2026-05-06 04:19 24.57793 -81.69102 12 ft 10 kts 110°
2026-05-06 04:19 24.57556 -81.68794 11 ft 96 kts 131°
2026-05-06 04:19 24.56961 -81.68042 207 ft 150 kts 131°
2026-05-06 04:20 24.56154 -81.67456 900 ft 130 kts 194°
2026-05-06 04:20 24.55674 -81.68284 790 ft 158 kts 268°
2026-05-06 04:20 24.55673 -81.69367 1014 ft 133 kts 270°
2026-05-06 04:20 24.55670 -81.70274 878 ft 116 kts 269°
2026-05-06 04:21 24.55668 -81.71188 831 ft 116 kts 271°
2026-05-06 04:21 24.55677 -81.72066 649 ft 119 kts 268°
2026-05-06 04:21 24.55662 -81.72997 452 ft 120 kts 269°
2026-05-06 04:21 24.55642 -81.73898 219 ft 118 kts 270°
2026-05-06 04:22 24.55627 -81.74850 90 ft 128 kts 268°
2026-05-06 04:22 24.55609 -81.75775 12 ft 108 kts 270°
2026-05-06 04:22 24.55607 -81.76430 12 ft 51 kts 269°
2026-05-06 04:23 24.55520 -81.76513 12 ft 16 kts 89°
2026-05-06 04:23 24.55523 -81.76349 11 ft 25 kts 89°
2026-05-06 04:23 24.55524 -81.76131 11 ft 42 kts 90°
2026-05-06 04:23 24.55525 -81.75815 12 ft 20 kts 102°
2026-05-06 04:24 24.55437 -81.75756 12 ft 13 kts 124°
2026-05-06 04:24 24.55428 -81.75654 12 ft 13 kts 84°
2026-05-06 04:24 24.55439 -81.75633 12 ft 0 kts
2026-05-06 04:24 24.55423 -81.75633 12 ft 0 kts 358°
2026-05-06 04:25 24.55432 -81.75654 12 ft 8 kts 233°
2026-05-06 04:25 24.55423 -81.75678 12 ft 0 kts 331°
2026-05-06 04:25 24.55403 -81.75668 12 ft 7 kts 336°
2026-05-06 04:25 24.55396 -81.75663 12 ft 0 kts 305°
2026-05-06 04:26 24.55390 -81.75652 12 ft 0 kts 285°
2026-05-06 04:26 24.55391 -81.75666 12 ft 2 kts 284°
2026-05-06 04:26 24.55396 -81.75671 12 ft 0 kts 339°
2026-05-06 04:26 24.55397 -81.75672 12 ft 0 kts 337°